Time,TemperatureF,DewpointF,PressureIn,WindDirection,WindDirectionDegrees,WindSpeedMPH,WindSpeedGustMPH,Humidity,HourlyPrecipIn,Conditions,Clouds,dailyrainin,SoftwareType,DateUTC
2013-02-13 00:01:00,40.0,24.0,29.86,WNW,291,0.0,0.0,53,0.00,,,0.00,,2013-02-13 05:01:00,
2013-02-13 00:11:00,40.0,24.0,29.85,WNW,291,0.0,0.0,53,0.00,,,0.00,,2013-02-13 05:11:00,
2013-02-13 00:22:00,40.0,24.0,29.85,WNW,291,0.0,0.0,53,0.00,,,0.00,,2013-02-13 05:22:00,
2013-02-13 00:32:00,40.0,25.0,29.85,WNW,291,0.0,0.0,55,0.00,,,0.00,,2013-02-13 05:32:00,
2013-02-13 00:42:00,40.0,25.0,29.85,WNW,291,0.0,0.0,55,0.00,,,0.00,,2013-02-13 05:42:00,
2013-02-13 00:52:00,40.0,25.0,29.85,WNW,291,0.0,0.0,55,0.00,,,0.00,,2013-02-13 05:52:00,
2013-02-13 01:02:00,40.0,24.0,29.83,WNW,291,0.0,0.0,52,0.00,,,0.00,,2013-02-13 06:02:00,
2013-02-13 01:11:00,41.0,27.0,29.82,WNW,291,0.0,0.0,56,0.00,,,0.00,,2013-02-13 06:11:00,
2013-02-13 01:21:00,41.0,27.0,29.82,WNW,291,0.0,0.0,56,0.00,,,0.00,,2013-02-13 06:21:00,
2013-02-13 01:32:00,40.0,26.0,29.82,WNW,291,0.0,0.0,57,0.00,,,0.00,,2013-02-13 06:32:00,
2013-02-13 01:42:00,40.0,26.0,29.80,WNW,291,0.0,0.0,58,0.00,,,0.00,,2013-02-13 06:42:00,
2013-02-13 01:51:00,40.0,26.0,29.80,WNW,291,0.0,0.0,58,0.00,,,0.00,,2013-02-13 06:51:00,
2013-02-13 02:02:00,40.0,27.0,29.81,WNW,291,0.0,0.0,59,0.00,,,0.00,,2013-02-13 07:02:00,
2013-02-13 02:11:00,40.0,26.0,29.81,WNW,291,0.0,0.0,56,0.00,,,0.00,,2013-02-13 07:11:00,
2013-02-13 02:22:00,40.0,26.0,29.81,WNW,291,0.0,0.0,56,0.00,,,0.00,,2013-02-13 07:22:00,
2013-02-13 02:32:00,41.0,27.0,29.80,WNW,291,0.0,0.0,57,0.00,,,0.00,,2013-02-13 07:32:00,
2013-02-13 02:42:00,40.0,28.0,29.80,WNW,291,0.0,0.0,61,0.00,,,0.00,,2013-02-13 07:42:00,
2013-02-13 02:52:00,40.0,28.0,29.80,WNW,291,0.0,0.0,61,0.00,,,0.00,,2013-02-13 07:52:00,
2013-02-13 03:01:00,39.0,28.0,29.80,WNW,291,0.0,0.0,64,0.00,,,0.00,,2013-02-13 08:01:00,
2013-02-13 03:11:00,39.0,29.0,29.79,WNW,291,0.0,0.0,67,0.00,,,0.00,,2013-02-13 08:11:00,
2013-02-13 03:21:00,39.0,29.0,29.79,WNW,291,0.0,0.0,67,0.00,,,0.00,,2013-02-13 08:21:00,
2013-02-13 03:32:00,38.0,28.0,29.79,WNW,291,0.0,0.0,67,0.00,,,0.00,,2013-02-13 08:32:00,
2013-02-13 03:43:00,38.0,28.0,29.79,WNW,291,0.0,0.0,67,0.00,,,0.00,,2013-02-13 08:43:00,
2013-02-13 03:52:00,38.0,27.0,29.78,WNW,291,0.0,0.0,65,0.00,,,0.00,,2013-02-13 08:52:00,
2013-02-13 04:01:00,39.0,28.0,29.78,WNW,291,0.0,0.0,64,0.00,,,0.00,,2013-02-13 09:01:00,
2013-02-13 04:11:00,39.0,27.0,29.76,WNW,291,0.0,0.0,63,0.00,,,0.00,,2013-02-13 09:11:00,
2013-02-13 04:21:00,39.0,27.0,29.76,WNW,291,0.0,0.0,63,0.00,,,0.00,,2013-02-13 09:21:00,
2013-02-13 04:31:00,39.0,27.0,29.76,NNW,332,0.0,0.0,62,0.00,,,0.00,,2013-02-13 09:31:00,
2013-02-13 04:42:00,39.0,27.0,29.74,NNW,332,0.0,0.0,62,0.00,,,0.00,,2013-02-13 09:42:00,
2013-02-13 04:51:00,39.0,27.0,29.74,NNW,332,0.0,0.0,62,0.00,,,0.00,,2013-02-13 09:51:00,
2013-02-13 05:01:00,39.0,27.0,29.73,North,3,0.0,0.0,62,0.00,,,0.00,,2013-02-13 10:01:00,
2013-02-13 05:11:00,39.0,27.0,29.73,North,3,0.0,0.0,62,0.00,,,0.00,,2013-02-13 10:11:00,
2013-02-13 05:21:00,39.0,27.0,29.73,North,3,0.0,0.0,62,0.00,,,0.00,,2013-02-13 10:21:00,
2013-02-13 05:32:00,39.0,27.0,29.72,NW,304,0.0,0.0,63,0.00,,,0.00,,2013-02-13 10:32:00,
2013-02-13 05:42:00,39.0,27.0,29.72,NNW,347,0.0,0.0,62,0.00,,,0.00,,2013-02-13 10:42:00,
2013-02-13 05:52:00,39.0,27.0,29.72,NNW,347,0.0,0.0,62,0.00,,,0.00,,2013-02-13 10:52:00,
2013-02-13 06:01:00,39.0,27.0,29.70,NNW,345,1.0,0.0,61,0.00,,,0.00,,2013-02-13 11:01:00,
2013-02-13 06:11:00,39.0,27.0,29.71,NNW,342,0.0,0.0,61,0.00,,,0.00,,2013-02-13 11:11:00,
2013-02-13 06:22:00,39.0,27.0,29.71,NNW,342,0.0,0.0,61,0.00,,,0.00,,2013-02-13 11:22:00,
2013-02-13 06:32:00,39.0,27.0,29.72,NNW,342,0.0,0.0,61,0.00,,,0.00,,2013-02-13 11:32:00,
2013-02-13 06:42:00,39.0,27.0,29.70,NNW,345,0.0,0.0,62,0.00,,,0.00,,2013-02-13 11:42:00,
2013-02-13 06:52:00,39.0,27.0,29.70,NNW,345,0.0,0.0,62,0.00,,,0.00,,2013-02-13 11:52:00,
2013-02-13 07:02:00,39.0,27.0,29.70,NNW,339,0.0,0.0,62,0.00,,,0.00,,2013-02-13 12:02:00,
2013-02-13 07:11:00,39.0,27.0,29.69,NNW,339,0.0,0.0,63,0.00,,,0.00,,2013-02-13 12:11:00,
2013-02-13 07:22:00,39.0,27.0,29.69,NNW,339,0.0,0.0,63,0.00,,,0.00,,2013-02-13 12:22:00,
2013-02-13 07:32:00,39.0,27.0,29.68,NNW,339,0.0,0.0,63,0.00,,,0.00,,2013-02-13 12:32:00,
2013-02-13 07:42:00,38.0,27.0,29.68,NNW,339,0.0,0.0,63,0.00,,,0.00,,2013-02-13 12:42:00,
2013-02-13 07:52:00,38.0,27.0,29.68,NNW,339,0.0,0.0,63,0.00,,,0.00,,2013-02-13 12:52:00,
2013-02-13 08:02:00,38.0,27.0,29.68,West,280,0.0,0.0,64,0.00,,,0.00,,2013-02-13 13:02:00,
2013-02-13 08:11:00,38.0,26.0,29.70,NW,308,2.0,0.0,62,0.00,,,0.00,,2013-02-13 13:11:00,
2013-02-13 08:21:00,38.0,26.0,29.70,NW,308,2.0,0.0,62,0.00,,,0.00,,2013-02-13 13:21:00,
2013-02-13 08:32:00,39.0,27.0,29.70,NW,308,0.0,0.0,61,0.00,,,0.00,,2013-02-13 13:32:00,
2013-02-13 08:42:00,39.0,28.0,29.69,NW,308,0.0,0.0,65,0.00,,,0.00,,2013-02-13 13:42:00,
2013-02-13 08:52:00,39.0,28.0,29.69,NW,308,0.0,0.0,65,0.00,,,0.00,,2013-02-13 13:52:00,
2013-02-13 09:01:00,39.0,27.0,29.70,NNW,345,2.0,0.0,61,0.00,,,0.00,,2013-02-13 14:01:00,
2013-02-13 09:11:00,40.0,27.0,29.71,NW,319,0.0,0.0,60,0.00,,,0.00,,2013-02-13 14:11:00,
2013-02-13 09:21:00,40.0,27.0,29.71,NW,319,0.0,0.0,60,0.00,,,0.00,,2013-02-13 14:21:00,
2013-02-13 09:32:00,40.0,27.0,29.70,NW,316,1.0,1.0,59,0.00,,,0.00,,2013-02-13 14:32:00,
2013-02-13 09:42:00,40.0,27.0,29.71,NNW,343,0.0,0.0,60,0.00,,,0.00,,2013-02-13 14:42:00,
2013-02-13 09:52:00,40.0,27.0,29.71,NNW,343,0.0,0.0,60,0.00,,,0.00,,2013-02-13 14:52:00,
2013-02-13 10:01:00,40.0,28.0,29.70,NNW,338,0.0,0.0,61,0.00,,,0.00,,2013-02-13 15:01:00,
2013-02-13 10:11:00,39.0,28.0,29.70,NW,308,1.0,0.0,64,0.00,,,0.00,,2013-02-13 15:11:00,
2013-02-13 10:21:00,39.0,28.0,29.70,NW,308,1.0,0.0,64,0.00,,,0.00,,2013-02-13 15:21:00,
2013-02-13 10:32:00,39.0,30.0,29.71,NNW,338,2.0,3.0,70,0.00,,,0.00,,2013-02-13 15:32:00,
2013-02-13 10:42:00,39.0,30.0,29.71,NNW,338,2.0,3.0,70,0.00,,,0.00,,2013-02-13 15:42:00,
2013-02-13 10:52:00,38.0,30.0,29.72,NE,48,0.0,0.0,74,0.00,,,0.00,,2013-02-13 15:52:00,
2013-02-13 11:01:00,38.0,31.0,29.71,NE,48,0.0,0.0,77,0.00,,,0.00,,2013-02-13 16:01:00,
2013-02-13 11:11:00,38.0,32.0,29.69,NE,48,0.0,0.0,78,0.00,,,0.00,,2013-02-13 16:11:00,
2013-02-13 11:21:00,38.0,32.0,29.69,NE,48,0.0,0.0,78,0.00,,,0.00,,2013-02-13 16:21:00,
2013-02-13 11:32:00,38.0,32.0,29.69,NNE,23,1.0,1.0,79,0.00,,,0.00,,2013-02-13 16:32:00,
2013-02-13 11:42:00,38.0,32.0,29.69,NNE,23,1.0,1.0,79,0.00,,,0.00,,2013-02-13 16:42:00,
2013-02-13 11:52:00,39.0,32.0,29.67,NNE,15,2.0,0.0,76,0.00,,,0.00,,2013-02-13 16:52:00,
2013-02-13 12:01:00,40.0,33.0,29.67,NW,315,1.0,3.0,75,0.00,,,0.00,,2013-02-13 17:01:00,
2013-02-13 12:11:00,40.0,32.0,29.68,NNW,332,3.0,0.0,73,0.01,,,0.00,,2013-02-13 17:11:00,
2013-02-13 12:21:00,40.0,32.0,29.68,NNW,332,3.0,0.0,73,0.01,,,0.00,,2013-02-13 17:21:00,
2013-02-13 12:32:00,40.0,31.0,29.69,NW,305,4.0,4.0,69,0.01,,,0.00,,2013-02-13 17:32:00,
2013-02-13 12:42:00,40.0,31.0,29.69,NW,305,4.0,4.0,69,0.01,,,0.00,,2013-02-13 17:42:00,
2013-02-13 12:52:00,40.0,30.0,29.68,WNW,297,4.0,4.0,68,0.01,,,0.00,,2013-02-13 17:52:00,
2013-02-13 13:02:00,40.0,31.0,29.68,North,350,3.0,3.0,69,0.01,,,0.00,,2013-02-13 18:02:00,
2013-02-13 13:11:00,40.0,31.0,29.69,NW,322,3.0,3.0,70,0.00,,,0.00,,2013-02-13 18:11:00,
2013-02-13 13:23:00,40.0,31.0,29.69,NW,322,3.0,3.0,70,0.00,,,0.00,,2013-02-13 18:23:00,
2013-02-13 13:32:00,39.0,32.0,29.69,West,274,5.0,5.0,77,0.00,,,0.00,,2013-02-13 18:32:00,
2013-02-13 13:42:00,39.0,32.0,29.69,West,274,5.0,5.0,77,0.00,,,0.00,,2013-02-13 18:42:00,
2013-02-13 13:52:00,38.0,34.0,29.70,WSW,252,6.0,6.0,84,0.00,,,0.00,,2013-02-13 18:52:00,
2013-02-13 14:01:00,35.0,34.0,29.72,WSW,256,4.0,7.0,95,0.00,,,0.00,,2013-02-13 19:01:00,
2013-02-13 14:11:00,33.0,32.0,29.72,NW,304,5.0,8.0,97,0.02,,,0.00,,2013-02-13 19:11:00,
2013-02-13 14:21:00,33.0,32.0,29.72,NW,304,5.0,8.0,97,0.02,,,0.00,,2013-02-13 19:21:00,
2013-02-13 14:32:00,33.0,32.0,29.73,West,276,2.0,6.0,97,0.02,,,0.00,,2013-02-13 19:32:00,
2013-02-13 14:42:00,33.0,32.0,29.73,West,276,2.0,6.0,97,0.02,,,0.00,,2013-02-13 19:42:00,
2013-02-13 14:52:00,33.0,32.0,29.73,WNW,294,5.0,5.0,97,0.02,,,0.00,,2013-02-13 19:52:00,
2013-02-13 15:02:00,34.0,33.0,29.73,WNW,283,6.0,6.0,97,0.02,,,0.00,,2013-02-13 20:02:00,
2013-02-13 15:11:00,34.0,33.0,29.73,NW,305,0.0,0.0,97,0.02,,,0.00,,2013-02-13 20:11:00,
2013-02-13 15:21:00,34.0,33.0,29.73,NW,305,0.0,0.0,97,0.02,,,0.00,,2013-02-13 20:21:00,
2013-02-13 15:31:00,34.0,33.0,29.74,NNW,328,2.0,2.0,97,0.02,,,0.00,,2013-02-13 20:31:00,
2013-02-13 15:42:00,34.0,33.0,29.75,NW,309,3.0,3.0,97,0.02,,,0.00,,2013-02-13 20:42:00,
2013-02-13 15:52:00,34.0,33.0,29.75,NW,309,3.0,3.0,97,0.02,,,0.00,,2013-02-13 20:52:00,
2013-02-13 16:01:00,33.0,32.0,29.75,WNW,302,5.0,5.0,97,0.02,,,0.00,,2013-02-13 21:01:00,
2013-02-13 16:11:00,34.0,33.0,29.76,West,281,2.0,6.0,97,0.00,,,0.00,,2013-02-13 21:11:00,
2013-02-13 16:21:00,34.0,33.0,29.76,West,281,2.0,6.0,97,0.00,,,0.00,,2013-02-13 21:21:00,
2013-02-13 16:31:00,34.0,33.0,29.77,West,281,2.0,3.0,97,0.00,,,0.00,,2013-02-13 21:31:00,
2013-02-13 16:42:00,34.0,33.0,29.77,West,270,0.0,0.0,96,0.00,,,0.00,,2013-02-13 21:42:00,
2013-02-13 16:52:00,34.0,33.0,29.77,West,270,0.0,0.0,96,0.00,,,0.00,,2013-02-13 21:52:00,
2013-02-13 17:02:00,34.0,33.0,29.77,WNW,298,0.0,0.0,96,0.00,,,0.00,,2013-02-13 22:02:00,
2013-02-13 17:11:00,34.0,33.0,29.78,WNW,298,0.0,0.0,96,0.00,,,0.00,,2013-02-13 22:11:00,
2013-02-13 17:21:00,34.0,33.0,29.78,WNW,298,0.0,0.0,96,0.00,,,0.00,,2013-02-13 22:21:00,
2013-02-13 17:31:00,34.0,33.0,29.79,WNW,298,0.0,0.0,95,0.00,,,0.00,,2013-02-13 22:31:00,
2013-02-13 17:42:00,34.0,33.0,29.79,WNW,298,0.0,0.0,95,0.00,,,0.00,,2013-02-13 22:42:00,
2013-02-13 17:52:00,34.0,33.0,29.80,West,273,0.0,0.0,96,0.00,,,0.00,,2013-02-13 22:52:00,
2013-02-13 18:01:00,34.0,33.0,29.81,WNW,284,0.0,0.0,96,0.00,,,0.00,,2013-02-13 23:01:00,
2013-02-13 18:11:00,34.0,33.0,29.81,WNW,284,0.0,0.0,96,0.00,,,0.00,,2013-02-13 23:11:00,
2013-02-13 18:21:00,34.0,33.0,29.81,WNW,284,0.0,0.0,96,0.00,,,0.00,,2013-02-13 23:21:00,
2013-02-13 18:32:00,34.0,33.0,29.80,WNW,284,0.0,0.0,96,0.00,,,0.00,,2013-02-13 23:32:00,
2013-02-13 18:42:00,34.0,33.0,29.80,WNW,284,0.0,0.0,96,0.00,,,0.00,,2013-02-13 23:42:00,
2013-02-13 18:52:00,34.0,33.0,29.82,WNW,284,0.0,0.0,96,0.00,,,0.00,,2013-02-13 23:52:00,
2013-02-13 19:02:00,33.0,32.0,29.83,WNW,284,0.0,0.0,96,0.00,,,0.00,,2013-02-14 00:02:00,
2013-02-13 19:11:00,33.0,32.0,29.83,WNW,284,0.0,0.0,96,0.00,,,0.00,,2013-02-14 00:11:00,
2013-02-13 19:22:00,34.0,33.0,29.84,WNW,284,0.0,0.0,97,0.00,,,0.00,,2013-02-14 00:22:00,
2013-02-13 19:32:00,34.0,33.0,29.84,WNW,284,0.0,0.0,96,0.00,,,0.00,,2013-02-14 00:32:00,
2013-02-13 19:42:00,34.0,33.0,29.84,WNW,284,0.0,0.0,96,0.00,,,0.00,,2013-02-14 00:42:00,
2013-02-13 19:52:00,34.0,33.0,29.85,WNW,284,0.0,0.0,97,0.00,,,0.00,,2013-02-14 00:52:00,
2013-02-13 20:01:00,34.0,33.0,29.85,WNW,284,0.0,0.0,97,0.00,,,0.00,,2013-02-14 01:01:00,
2013-02-13 20:11:00,34.0,33.0,29.86,WNW,284,0.0,0.0,97,0.00,,,0.00,,2013-02-14 01:11:00,
2013-02-13 20:21:00,34.0,33.0,29.86,WNW,284,0.0,0.0,97,0.00,,,0.00,,2013-02-14 01:21:00,
2013-02-13 20:32:00,34.0,33.0,29.87,WNW,284,0.0,0.0,97,0.00,,,0.00,,2013-02-14 01:32:00,
2013-02-13 20:41:00,34.0,33.0,29.87,WNW,284,0.0,0.0,97,0.00,,,0.00,,2013-02-14 01:41:00,
2013-02-13 20:52:00,34.0,33.0,29.87,WNW,284,0.0,0.0,97,0.00,,,0.00,,2013-02-14 01:52:00,
2013-02-13 21:01:00,33.0,32.0,29.87,WNW,284,0.0,0.0,97,0.00,,,0.00,,2013-02-14 02:01:00,
2013-02-13 21:11:00,33.0,32.0,29.88,WNW,284,0.0,0.0,97,0.00,,,0.00,,2013-02-14 02:11:00,
2013-02-13 21:21:00,33.0,32.0,29.88,WNW,284,0.0,0.0,97,0.00,,,0.00,,2013-02-14 02:21:00,
2013-02-13 21:32:00,32.0,31.0,29.88,WNW,284,0.0,0.0,97,0.00,,,0.00,,2013-02-14 02:32:00,
2013-02-13 21:41:00,32.0,31.0,29.88,WNW,284,0.0,0.0,97,0.00,,,0.00,,2013-02-14 02:41:00,
2013-02-13 21:52:00,32.0,31.0,29.88,WNW,284,0.0,0.0,97,0.00,,,0.00,,2013-02-14 02:52:00,
2013-02-13 22:02:00,32.0,31.0,29.89,WSW,257,0.0,0.0,97,0.00,,,0.00,,2013-02-14 03:02:00,
2013-02-13 22:11:00,32.0,31.0,29.89,WSW,257,0.0,0.0,97,0.00,,,0.00,,2013-02-14 03:11:00,
2013-02-13 22:22:00,32.0,31.0,29.89,WSW,257,0.0,0.0,97,0.00,,,0.00,,2013-02-14 03:22:00,
2013-02-13 22:31:00,31.0,30.0,29.89,WSW,257,0.0,0.0,97,0.00,,,0.00,,2013-02-14 03:31:00,
2013-02-13 22:42:00,31.0,30.0,29.90,WSW,257,0.0,0.0,97,0.00,,,0.00,,2013-02-14 03:42:00,
2013-02-13 22:51:00,31.0,30.0,29.90,WSW,257,0.0,0.0,97,0.00,,,0.00,,2013-02-14 03:51:00,
2013-02-13 23:01:00,31.0,30.0,29.90,WSW,257,0.0,0.0,97,0.00,,,0.00,,2013-02-14 04:01:00,
2013-02-13 23:12:00,31.0,30.0,29.91,WSW,257,0.0,0.0,97,0.00,,,0.00,,2013-02-14 04:12:00,
2013-02-13 23:21:00,31.0,30.0,29.91,WSW,257,0.0,0.0,97,0.00,,,0.00,,2013-02-14 04:21:00,
2013-02-13 23:32:00,31.0,30.0,29.91,WSW,257,0.0,0.0,97,0.00,,,0.00,,2013-02-14 04:32:00,
2013-02-13 23:41:00,31.0,30.0,29.91,WSW,257,0.0,0.0,97,0.00,,,0.00,,2013-02-14 04:41:00,
2013-02-13 23:52:00,30.0,29.0,29.91,WSW,257,0.0,0.0,97,0.00,,,0.00,,2013-02-14 04:52:00,